For GOD so loved the world that HE gave HIS one and only SON, that whoever believes in HIM shall not perish but have eternal life.


Thunder radar more information blitzortung!


Rain radar more information rain snow radar



Weather Underground History page Text

Daily Summary for August 16, 2018 Units:  English    Metric   Both
« Previous Day
Next Day »
Daily Weekly Monthly Yearly Custom
  Current: High: Low: Average:
Temperature: 64.9 °F TemperatureF °F 64.3 °F 66 °F
Dew Point: 62.8 °F DewpointF °F 61.6 °F 62.9 °F
Humidity: 93 % Humidity % 88 % 88 %
Wind Speed: 0.1 mph WindSpeedMPH mph 0 mph 0.1 mph
Wind Gust: 0 mph WindSpeedGustMPH mph - -
Wind:South - - South
Pressure: 30.03 in PressureIn in 30.00 in -
Precipitation: 0 in      
Historical Graphs
 
 
Tabular Data for August 16, 2018
Time Temperature Dew Point Pressure Wind Wind Speed Wind Gust Humidity Rainfall Rate (Hourly)
TemperatureF °F DewpointF °F PressureIn in Calm     Humidity % HourlyPrecipIn in
00:04 69.7 °F 66 °F 30.00 in Calm     88 % 0 in
00:09 69.6 °F 65.9 °F 30.00 in Calm     88 % 0 in
00:14 69.5 °F 65.8 °F 30.00 in Calm     88 % 0 in
00:20 69.4 °F 65.7 °F 30.00 in Calm     88 % 0 in
00:24 69.3 °F 65.6 °F 30.00 in Calm     88 % 0 in
00:29 69.2 °F 65.5 °F 30.00 in Calm   1.2 mph 88 % 0 in
00:34 69.1 °F 65.4 °F 30.01 in Calm   1.2 mph 88 % 0 in
00:39 69 °F 65.3 °F 30.01 in South 0.2 mph   88 % 0 in
00:44 69 °F 65.3 °F 30.01 in South 0.5 mph 1.2 mph 88 % 0 in
00:49 68.9 °F 65.5 °F 30.01 in Calm     89 % 0 in
00:54 68.8 °F 65.4 °F 30.01 in Calm     89 % 0 in
00:59 68.7 °F 65.3 °F 30.01 in South 0.3 mph   89 % 0 in
01:04 68.7 °F 65.3 °F 30.01 in Calm     89 % 0 in
01:09 68.6 °F 65.2 °F 30.01 in Calm     89 % 0 in
01:14 68.5 °F 65.1 °F 30.01 in Calm     89 % 0 in
01:19 68.4 °F 65 °F 30.01 in Calm     89 % 0 in
01:24 68.3 °F 64.9 °F 30.01 in South 0.2 mph   89 % 0 in
01:29 68.2 °F 64.8 °F 30.01 in South 0.2 mph 1.2 mph 89 % 0 in
01:34 68.2 °F 64.8 °F 30.01 in Calm     89 % 0 in
01:39 68.1 °F 64.7 °F 30.01 in Calm     89 % 0 in
01:44 68 °F 64.6 °F 30.01 in Calm     89 % 0 in
01:49 68 °F 65 °F 30.01 in Calm   2.3 mph 90 % 0 in
01:54 67.9 °F 64.5 °F 30.01 in Calm   2.3 mph 89 % 0 in
01:59 67.8 °F 64.4 °F 30.01 in South 0.2 mph 2.3 mph 89 % 0 in
02:04 67.7 °F 64.7 °F 30.01 in South 0.4 mph 2.3 mph 90 % 0 in
02:10 67.7 °F 64.7 °F 30.01 in South 0.1 mph 1.2 mph 90 % 0 in
02:14 67.7 °F 64.7 °F 30.01 in South 0.5 mph   90 % 0 in
02:19 67.6 °F 64.6 °F 30.01 in Calm   1.2 mph 90 % 0 in
02:24 67.6 °F 64.6 °F 30.01 in Calm     90 % 0 in
02:29 67.6 °F 64.6 °F 30.01 in South 0.2 mph 1.2 mph 90 % 0 in
02:34 67.6 °F 64.6 °F 30.01 in South 0.2 mph 1.2 mph 90 % 0 in
02:39 67.6 °F 64.2 °F 30.01 in South 0.2 mph 1.2 mph 89 % 0 in
02:44 67.7 °F 64.3 °F 30.02 in Calm   1.2 mph 89 % 0 in
02:49 67.8 °F 64.4 °F 30.02 in Calm     89 % 0 in
02:54 67.9 °F 64.5 °F 30.01 in Calm     89 % 0 in
02:59 67.9 °F 64.5 °F 30.01 in Calm     89 % 0 in
03:04 67.9 °F 64.5 °F 30.01 in Calm     89 % 0 in
03:09 67.8 °F 64.1 °F 30.01 in Calm     88 % 0 in
03:14 67.8 °F 64.1 °F 30.01 in Calm     88 % 0 in
03:19 67.6 °F 63.9 °F 30.01 in Calm     88 % 0 in
03:24 67.4 °F 63.7 °F 30.01 in Calm     88 % 0 in
03:29 67.3 °F 63.6 °F 30.01 in Calm     88 % 0 in
03:34 67.1 °F 63.4 °F 30.01 in Calm     88 % 0 in
03:39 67 °F 63.3 °F 30.01 in Calm     88 % 0 in
03:44 66.8 °F 63.5 °F 30.01 in Calm     89 % 0 in
03:49 66.6 °F 63.3 °F 30.01 in Calm   1.2 mph 89 % 0 in
03:54 66.5 °F 63.2 °F 30.02 in Calm     89 % 0 in
03:59 66.3 °F 63 °F 30.02 in Calm     89 % 0 in
04:04 66.1 °F 62.8 °F 30.02 in Calm     89 % 0 in
04:09 66 °F 62.7 °F 30.02 in Calm     89 % 0 in
04:14 65.8 °F 62.5 °F 30.02 in Calm     89 % 0 in
04:19 65.7 °F 62.4 °F 30.02 in Calm     89 % 0 in
04:24 65.5 °F 62.2 °F 30.02 in Calm     89 % 0 in
04:29 65.4 °F 62.1 °F 30.02 in Calm     89 % 0 in
04:34 65.3 °F 62 °F 30.02 in Calm     89 % 0 in
04:39 65.1 °F 61.8 °F 30.01 in Calm     89 % 0 in
04:44 65 °F 61.7 °F 30.02 in Calm     89 % 0 in
04:49 64.9 °F 61.9 °F 30.02 in Calm     90 % 0 in
04:55 64.9 °F 61.9 °F 30.02 in Calm     90 % 0 in
04:59 64.8 °F 61.8 °F 30.02 in Calm     90 % 0 in
05:04 64.7 °F 61.7 °F 30.02 in Calm     90 % 0 in
05:09 64.6 °F 61.9 °F 30.02 in South 0.1 mph   91 % 0 in
05:14 64.5 °F 61.8 °F 30.01 in Calm     91 % 0 in
05:19 64.5 °F 61.8 °F 30.01 in Calm   1.2 mph 91 % 0 in
05:24 64.4 °F 61.7 °F 30.02 in Calm     91 % 0 in
05:29 64.4 °F 61.7 °F 30.02 in Calm     91 % 0 in
05:34 64.3 °F 61.6 °F 30.02 in South 0.5 mph 1 mph 91 % 0 in
05:39 64.3 °F 61.9 °F 30.02 in Calm   1.2 mph 92 % 0 in
05:44 64.3 °F 61.9 °F 30.02 in Calm   1.2 mph 92 % 0 in
05:49 64.3 °F 61.9 °F 30.02 in Calm     92 % 0 in
05:54 64.3 °F 61.9 °F 30.02 in Calm     92 % 0 in
05:59 64.3 °F 61.9 °F 30.03 in Calm   2.3 mph 92 % 0 in
06:04 64.5 °F 62.1 °F 30.03 in South 0.8 mph 3.5 mph 92 % 0 in
06:09 64.7 °F 62.6 °F 30.03 in South 0.2 mph 2.3 mph 93 % 0 in
06:14 64.8 °F 62.4 °F 30.03 in South 1 mph 3.5 mph 92 % 0 in
06:19 64.8 °F 62.7 °F 30.03 in South 0.2 mph 2.3 mph 93 % 0 in
06:24 64.9 °F 62.8 °F 30.03 in South 0.1 mph   93 % 0 in
Bullis Road Weather
Compliments of Weather Underground - 2.75 mb

Script developed by  Jim McMurry - jmcmurry@mwt.net Adapted for the template by  Wim van der Kuil - Leuven-Template.eu